Regional Weather Roundup
Issued by NWS

Home | Current Version | Previous Version | Text Only | Print | Product List | Glossary On
Versions: 1 2 3 4 5 6 7 8 9 10 11 12 13 14 15 16 17 18 19 20 21 22 23 24 25 26 27 28 29 30 31 32 33 34 35 36 37 38 39 40 41 42 43 44 45 46 47 48 49 50
000
ASUS43 KMPX 210501
RWRMN
WEATHER ROUNDUP FOR MINNESOTA
NATIONAL WEATHER SERVICE TWIN CITIES/CHANHASSEN MN
1200 AM CDT THU SEP 21 2017


NOTE: "FAIR" INDICATES FEW OR NO CLOUDS BELOW 12,000 FEET WITH NO
SIGNIFICANT WEATHER AND/OR OBSTRUCTIONS TO VISIBILITY. N/A MEANS
CURRENT SKY AND/OR WEATHER CONDITIONS ARE NOT AVAILABLE.

MNZ060>063-068>070-210600-
   Twin Cities Metro

CITY           SKY/WX    TMP DP  RH WIND       PRES   REMARKS
TWIN CITIES    CLEAR     62  52  69 CALM      29.97R
ST PAUL        CLEAR     58  52  80 CALM      29.98R
CRYSTAL        CLEAR     52  48  86 CALM      29.96R
BLAINE         CLEAR     54  52  94 CALM      29.97R
LAKEVILLE      CLEAR     50  50 100 CALM      29.98R
EDEN PRAIRIE   CLEAR     57  53  86 NE6       29.96R
SOUTH ST PAUL  CLEAR     57  52  82 CALM      29.97R
LAKE ELMO      FAIR      52  50  93 CALM      29.99R
$$
MNZ001>005-007-008-013>017-022>024-027-028-210600-
   Northwest Minnesota

CITY           SKY/WX    TMP DP  RH WIND       PRES   REMARKS
BEMIDJI        CLEAR     50  44  78 S6        29.92R
HALLOCK        CLOUDY    54  46  76 S10       29.79S
ROSEAU         CLEAR     52  45  76 S8        29.83S
WARROAD        CLEAR     54  46  76 S5        29.84S
CROOKSTON      CLEAR     55  45  67 S9        29.84S
FOSSTON        CLEAR     52  45  76 SE7       29.89S
DETROIT LAKES  CLEAR     52  45  76 S5        29.91S
MOORHEAD       CLEAR     54  45  71 SE7       29.87S
PARK RAPIDS    CLEAR     53  44  71 SE8       29.92S
MAHNOMEN       FAIR      52  43  71 S8        29.88S
$$
MNZ006-009>011-018-025>026-210600-
   North Central Minnesota

CITY           SKY/WX    TMP DP  RH WIND       PRES   REMARKS
BAUDETTE       CLEAR     52  46  80 S8        29.87R
FLAG ISLAND    CLEAR     59  46  63 S9        29.82S
INTL FALLS     CLEAR     45  41  86 CALM      29.91R
WASKISH        CLEAR     52  45  76 S6        29.90R
BIG FORK       CLEAR     43  41  93 CALM      29.94R FOG
LONGVILLE      CLEAR     43  43 100 CALM      29.94S
GRAND RAPIDS   CLEAR     45  44  97 S3        29.97R
CRANE LAKE     CLEAR     39  39 100 CALM      29.95R
ORR            CLEAR     48  43  81 CALM      29.92R
COOK           CLEAR     45  43  93 CALM      29.96R
WALKER         FAIR      52  43  70 S3        29.93S
$$
MNZ012-019>021-037-210600-
   Northeast Minnesota

CITY           SKY/WX    TMP DP  RH WIND       PRES   REMARKS
DULUTH         CLEAR     45  44  97 CALM      29.96R
ELY            CLEAR     45  43  93 CALM      29.96R
HIBBING        FOG       41  41 100 CALM      29.96R VSB 1
EVELETH        CLEAR     43  40  91 CALM      29.98R
DULUTH HARBOR  CLEAR     55  52  88 SW5       29.97R
$$
MNZ029>031-032-039>041-046>048-054>057-064-210600-
   West Central Minnesota

CITY           SKY/WX    TMP DP  RH WIND       PRES   REMARKS
FERGUS FALLS   CLEAR     54  43  66 SE7       29.90S
WHEATON        CLEAR     52  45  76 SE9       29.90S
MORRIS         CLEAR     52  46  82 SE7       29.91S
ALEXANDRIA     CLEAR     54  47  77 SE7       29.94S
ELBOW LAKE     FAIR      53  46  75 E9        29.91S
WADENA         CLEAR     48  43  81 SE5       29.92F
GLENWOOD       CLEAR     52  46  82 SE5       29.94S
APPLETON       CLEAR     54  46  76 SE6       29.91S
BENSON         CLEAR     55  48  76 CALM      29.93F
ORTONVILLE     CLEAR     52  46  82 NE6       29.90S
MADISON        CLEAR     54  46  76 SE7       29.91S
WILLMAR        FAIR      52  48  87 CALM      29.95S
$$
MNZ033>034-036-042>043-049>051-058-059-210600-
   Central Minnesota

CITY           SKY/WX    TMP DP  RH WIND       PRES   REMARKS
ST CLOUD       CLEAR     48  48 100 CALM      29.97R
SAUK CENTRE    FAIR      48  46  93 CALM      29.95R
PAYNESVILLE    CLEAR     47  47  99 CALM      29.95R
AITKIN         CLEAR     41  39  93 CALM      29.95R
PINE RIVER     CLEAR     41  39  93 CALM      29.98S FOG
BRAINERD       CLEAR     47  46  97 CALM      29.96R
LITTLE FALLS   CLEAR     45  43  93 E3        29.96R
LITCHFIELD     CLEAR     54  54 100 CALM      29.96R
BUFFALO        CLEAR     49  46  89 CALM      29.98R
MAPLE LAKE     CLEAR     48  47  98 CALM      29.98R
HUTCHINSON     CLEAR     48  47  99 CALM      29.97R
$$
MNZ037-044-045-052-053-210600-
   East Central Minnesota

CITY           SKY/WX    TMP DP  RH WIND       PRES   REMARKS
PRINCETON      CLEAR     46  45  93 CALM      29.97R
MORA           CLEAR     45  45 100 CALM      29.99R
RUSH CITY      MOCLDY    47  46  96 CALM      29.98R
MOOSE LAKE     CLEAR     43  43 100 CALM      29.95R
HINCKLEY       FAIR      46  46 100 CALM      29.98R
CLOQUET        CLEAR     46  45  93 CALM      29.96R
MCGREGOR       CLEAR     46  45  93 CALM      29.97R
$$
MNZ071>073-080-081-089-090-097-098-210600-
   Southwest Minnesota

CITY           SKY/WX    TMP DP  RH WIND       PRES   REMARKS
MONTEVIDEO     CLEAR     54  48  82 S7        29.92F
GRANITE FALLS  CLEAR     55  50  81 CALM      29.94S
CANBY          CLEAR     51  47  86 CALM      29.92S
MARSHALL       CLEAR     52  47  83 S5        29.93S
REDWOOD FALLS  CLEAR     53  49  86 E6        29.94R
OLIVIA         CLEAR     54  50  87 CALM      29.94R
PIPESTONE      CLEAR     52  45  76 SE5       29.93F
WORTHINGTON    CLEAR     52  47  83 NE5       29.96R
JACKSON        CLEAR     52  50  93 CALM      29.97R
TRACY          CLEAR     53  48  84 S5        29.94F
SLAYTON        CLEAR     49  46  89 CALM      29.95S
$$
MNZ065>067-074>077-082>085-091>093-210600-
   South Central Minnesota

CITY           SKY/WX    TMP DP  RH WIND       PRES   REMARKS
MANKATO        CLEAR     60  51  72 E7        29.97R
NEW ULM        CLEAR     59  46  63 E5        29.95R
ST JAMES       CLEAR     52  50  93 CALM      29.97R
FAIRMONT       CLEAR     52  49  89 E3        29.97R
GLENCOE        CLEAR     52  51  97 CALM      29.96R
FARIBAULT      CLEAR     50  48  93 CALM      29.99R
OWATONNA       CLEAR     52  52 100 CALM      29.98R
WASECA         CLEAR     52  46  82 NE3       29.99R
ALBERT LEA     CLEAR     55  55 100 CALM      29.97R
$$
MNZ078>079-086>088-094>096-210600-
   Southeast Minnesota

CITY           SKY/WX    TMP DP  RH WIND       PRES   REMARKS
ROCHESTER      CLEAR     58  53  84 NE3       29.99R
RED WING       CLEAR     54  52  94 N3        29.97R
STANTON        CLEAR     52  50  93 CALM      29.97R
DODGE CENTER   CLEAR     52  50  93 CALM      29.98S
WINONA         CLEAR     55  55 100 NW6       29.95F
AUSTIN         CLEAR     54  52  94 CALM      29.97R
PRESTON        CLEAR     58  53  83 N6        29.98S
$$
ABBREVIATIONS USED IN REMARKS
   TC - TEMPERATURES IN CELSIUS
  WCI - WIND CHILL INDEX
   HX - HEAT INDEX
  VSB - VISIBILITY
$$




USA.gov is the U.S. government's official web portal to all federal, state and local government web resources and services.